Preview of NWS' New Version of Forecast
This preview is not operational and should not be used for support decisions.

Regional Weather Roundup (RWR)

Issued by National Weather Service (NWS)

                            
000
ASUS45 KABQ 181701
RWRNM 
NEW MEXICO REGIONAL WEATHER ROUNDUP
NATIONAL WEATHER SERVICE ALBUQUERQUE NM
1000 AM MST MON FEB 18 2019

NOTE: "FAIR" MEANS FEW OR NO CLOUDS BELOW 12,000 FEET AGL WITH NO
       SIGNIFICANT WEATHER OR OBSTRUCTIONS TO VISION.

      THIS PRODUCT IS RELEASED AS TWO VERSIONS.  ONE VERSION NEAR
      THE TOP OF THE HOUR CONTAINING PRELIMINARY DATA FROM ALBUQUERQUE
      AND OTHER STATIONS.  A FINAL VERSION WITH ADDITIONAL DATA IS 
      ISSUED ABOUT 10 MINUTES AFTER THE HOUR.
 
NMZ501-503-504-510>518-181800-
NORTHWEST PLATEAU/NORTHCENTRAL MOUNTAINS
  
CITY           SKY/WX    TMP DP  RH WIND       PRES   REMARKS
FARMINGTON     FLURRIES  29  21  72 SE12G25   29.89F WCI  19          
LOS ALAMOS     LGT SNOW  23  19  84 S14       29.98S WCI  11          
SANTA FE       FAIR      27  19  72 SE22      29.99R WCI  13          
TAOS           PTSUNNY   30  11  45 SE5       29.98S WCI  25          
ANGEL FIRE       N/A     16   6  65 S15       29.96S WCI   1          

$$
NMZ402-403-502-505>509-181800-
WESTCENTRAL MOUNTAINS/SOUTHWEST MOUNTAINS
  
CITY           SKY/WX    TMP DP  RH WIND       PRES   REMARKS
GALLUP         LGT SNOW  28  22  78 S14G22    29.85S WCI  17          
GRANTS         PTSUNNY   31  18  58 SE14G21   29.93S WCI  21          
SILVER CITY    FAIR      40  11  30 SW8       29.98S                  

$$
NMZ407-409-411-412-181800-
SOUTHERN DESERTS
  
CITY           SKY/WX    TMP DP  RH WIND       PRES   REMARKS
DEMING         FAIR      43  18  36 SE7       30.00F                  
LAS CRUCES     FAIR      46  19  33 SE5       30.02S                  
HOLLOMAN AFB   FAIR      45  13  27 CALM      30.04F                  
ALAMOGORDO     FAIR      46  10  23 W5        30.02F                  
T OR C         FAIR      40  15  36 CALM      29.98F                  

$$
NMZ519>523-181800-
CENTRAL VALLEYS/CENTRAL HIGHLANDS
  
CITY           SKY/WX    TMP DP  RH WIND       PRES   REMARKS
ALBUQUERQUE    FAIR      36  16  44 SW9       29.98F WCI  29          
DOUBLE EAGLE   PTSUNNY   36  18  48 SE10      29.98F WCI  28          
CLINES CORNERS LGT SNOW  17  15  92 E16G28    30.02S VSB 3/4 WCI   2  
BELEN          FAIR      38  13  35 SE13      29.99F WCI  31          
SOCORRO        NOT AVBL                                               

$$
NMZ524>526-539-540-181800-
SOUTHCENTRAL MOUNTAINS
  
CITY           SKY/WX    TMP DP  RH WIND       PRES   REMARKS
RUIDOSO        NOT AVBL                                               

$$
NMZ527>531-181800-
NORTHEAST HIGHLANDS/NORTHEAST PLAINS
  
CITY           SKY/WX    TMP DP  RH WIND       PRES   REMARKS
LAS VEGAS      LGT SNOW  15  11  83 NE10      30.07R VSB 3/4 WCI   2  
RATON          LGT SNOW  12   8  84 SW6       30.10S FOG     WCI   3  
CLAYTON        LGT SNOW  11   5  77 NE7       30.21S WCI   0          

$$
NMZ532>537-181800-
EASTCENTRAL PLAINS
  
CITY           SKY/WX    TMP DP  RH WIND       PRES   REMARKS
SANTA ROSA     CLOUDY    20  17  87 NE16G22   30.16R FOG     WCI   6  
TUCUMCARI      CLOUDY    20  13  74 NE16      30.22S WCI   6          
CANNON AFB     CLOUDY    22  14  72 E15       30.21R WCI   8          
CLOVIS AIRPORT CLOUDY    21  15  78 NE15      30.22R WCI   8          

$$
NMZ028-029-538-181800-
SOUTHEAST PLAINS
  
CITY           SKY/WX    TMP DP  RH WIND       PRES   REMARKS
ROSWELL        CLOUDY    38  22  52 E7        30.12S WCI  33          
ARTESIA        FAIR      39  23  52 SE16G23   30.12F WCI  30          
CARLSBAD       FAIR      40  24  53 SE10      30.11S WCI  33          
HOBBS          SUNNY     36  23  60 E20G29    30.16R WCI  25          


$$